Location: Taupo
(38.6830°S, 176.0830°E)
Time: 19:48:22
(UTC+13:00)

BREEZE-M DEB (TANK) - Pass Details

Date: 24 January 2019
Orbit: 279 x 14013 km, 46.1° (Epoch: 21 February)

Event Time Altitude Azimuth Distance (km) Brightness Sun altitude
Rises 22:18:13 0° 284° (WNW) 4,307 7.3 -17.1°
Reaches altitude 10° 22:22:28 10° 276° (W) 2,257 6.0 -17.7°
Maximum altitude 22:26:24 36° 206° (SSW) 656 3.3 -18.2°
Enters shadow 22:28:08 14° 139° (SE) 1,040 3.8 -18.4°
